Dewpoint
56 56 55 54 53 53 53 52 52 53 52 52 51 51 50 51 50 50 49 49 48 48 47 46 45 44 44 44 43 41 40 41 40 40 40 40 40 42 41 42 43 40
55 55 54 53 52 51 52 52 52 52 52 52 51 50 51 50 50 49 49 48 47 46 45 44 44 43 42 42 43 41 39 40 40 40 39 39 38 40 41 42 42 41
54 53 53 52 51 51 52 52 52 51 51 51 51 51 50 50 50 49 48 47 46 46 45 44 43 42 42 42 41 41 40 40 40 39 40 39 38 38 38 38 39 39
53 53 51 51 50 50 51 51 51 50 50 50 50 50 49 50 49 48 48 47 45 44 44 43 42 40 39 40 41 40 41 39 39 40 39 39 38 37 37 38 38 37
52 51 50 50 50 50 51 50 50 50 50 50 50 49 49 49 48 47 47 46 44 43 42 41 41 41 40 41 40 40 40 39 40 39 37 37 38 38 37 37 36 36
51 49 49 49 50 50 50 49 48 49 49 50 50 49 48 48 47 46 45 44 43 42 41 41 40 40 40 41 41 40 39 38 38 37 35 35 35 36 37 36 35 35
50 49 49 49 49 49 49 49 49 49 49 49 48 48 48 47 46 45 43 43 40 40 39 41 41 41 41 41 40 39 38 38 37 35 34 34 35 36 36 35 33 32
49 49 49 49 50 49 49 48 48 48 49 48 48 48 46 45 45 46 44 42 40 39 40 39 40 40 41 41 39 38 40 39 37 35 34 34 34 31 34 35 35 32
49 49 49 50 50 49 48 47 48 48 47 48 47 47 47 46 45 45 44 43 41 41 39 40 39 40 41 40 39 36 35 38 37 35 35 34 32 31 30 33 33 34
49 49 50 49 49 48 48 48 47 47 47 46 46 46 46 47 45 44 44 43 42 41 40 40 40 41 40 38 36 35 34 34 35 36 34 33 31 30 30 32 33 33
50 50 50 49 49 48 48 47 47 46 46 45 46 45 45 45 45 44 43 42 43 40 39 39 39 39 38 37 39 37 35 36 34 34 34 33 33 33 34 33 33 33
49 49 49 49 48 47 47 46 46 46 46 46 44 44 45 44 44 44 41 41 40 40 39 39 39 38 34 33 34 37 37 37 37 36 35 33 32 32 33 34 34 33
48 48 48 48 47 47 46 45 46 46 45 44 44 44 45 44 44 43 43 41 40 41 40 40 39 37 36 36 35 35 36 36 38 37 36 35 32 31 32 34 34 35
47 47 47 47 46 46 45 45 45 45 45 45 44 44 44 43 43 43 43 42 42 41 41 42 41 38 36 37 36 37 37 37 37 38 36 36 36 34 35 34 35 36
46 46 46 46 45 44 45 45 45 45 45 44 45 45 45 43 43 43 42 41 41 42 41 42 40 40 39 39 38 37 37 37 37 36 36 36 35 34 35 35 35 36
45 45 44 44 44 44 44 44 44 44 44 44 43 43 43 43 42 42 41 41 41 41 42 44 43 44 44 42 41 38 38 38 39 38 36 36 35 35 35 35 34 35
44 43 43 42 43 43 43 43 43 44 44 43 43 43 43 43 43 41 42 41 40 41 42 43 44 43 41 39 39 40 40 39 38 38 37 36 35 35 33 33 34 34
43 42 41 41 42 41 41 41 43 43 42 42 42 43 43 43 43 41 42 42 42 41 43 43 44 43 38 39 39 39 41 39 39 38 38 36 35 34 34 33 33 35
41 40 40 40 40 40 41 41 41 41 41 42 42 43 43 42 42 42 42 42 42 41 42 43 43 39 38 39 38 38 39 40 38 39 38 36 36 35 34 34 33 32
41 40 40 40 40 40 40 39 40 40 42 42 42 42 42 42 42 43 42 42 42 42 42 43 43 39 38 39 38 38 38 39 39 40 39 37 36 35 36 35 34 33
40 40 39 39 39 39 39 38 39 41 40 40 41 41 41 41 41 42 42 42 42 42 42 43 44 38 38 38 38 38 37 38 42 42 40 39 38 37 37 37 36 37
40 39 39 39 38 38 37 37 39 39 39 39 40 40 40 40 40 41 41 41 42 42 42 41 43 37 37 38 37 37 37 42 42 42 40 39 37 37 37 37 36 37
40 40 39 38 37 37 36 37 38 38 38 38 38 38 38 39 39 39 40 40 40 41 42 41 41 38 37 37 37 36 38 40 42 39 39 39 38 38 37 38 38 36
40 39 39 38 37 36 36 37 37 37 37 37 36 36 37 37 37 38 38 39 39 40 41 41 41 39 36 36 36 36 39 40 38 37 39 39 39 39 37 36 38 41
41 40 39 38 37 37 37 37 37 37 37 37 37 36 37 36 36 36 37 38 39 40 40 42 41 40 36 36 36 36 39 41 37 35 38 39 36 36 37 34 35 37
43 41 41 39 38 38 37 37 37 37 37 36 36 34 34 34 35 35 36 36 37 39 40 41 41 41 39 36 36 36 37 39 37 35 36 38 36 33 34 34 34 34